User: anonymous   Login
Location: Unspecified
(0.0000°N, 0.0000°E)
Time: 16:26:49
(UTC+00:00)
Language:

ETS 8 - Orbit

View from above orbital plane
View from above orbital plane
View from above satellite
View from above satellite

Ground track
Ground track

The orbit data is extracted from the following two-line orbital elements,

1 29656U 06059A   17080.38075925 -.00000114 +00000-0 +00000-0 0  9990
2 29656 005.4452 059.7367 0008835 240.7581 119.3036 00.99005887037591
Epoch (UTC): 21 March 2017 09:08:17
Eccentricity: 0.0008835
inclination: 5.4452°
perigee height: 36107 km
apogee height: 36182 km
right ascension of ascending node: 59.7367°
argument of perigee: 240.7581°
revolutions per day: 0.99005887
mean anomaly at epoch: 119.3036°
orbit number at epoch: 3759

The dashed part of the orbit path shows where the satellite is in the earth's shadow,  

DLR